Showing default

IRIDIUM 100, 42956

Orbit data source: Space-Track

IRIDIUM 100, 42956 is a payload satellite owned by Iridium (US) in LEO that was launched on Mon, 09 Oct 2017 UTC via an FALCON 9 launch vehicle from the Air Force Western Test Range (AFWTR). Payload-class satellites include a variety of spacecraft equipped with specific instruments for various scientific and technological missions. These include communications satellites like Starlink; space stations such as the ISS; scientific satellites like the Hubble; Earth observation satellites from companies like Planet Labs, Umbra, and HawkEye 360; GPS; miniature CubeSats for education and research; and military/defense satellites.

Loading next visibility...
Identifier
42956, 2017-061B
Orbit
LEO
Country
Flag of USUS
Related business
Manufacturer
OATK SSG Gilbert
Mission
Operational Commercial Communications
Bus & Motor
ELITEBUS, Unknown motor
Mass
860 kg wet, 700 kg dry
Launch date (UTC)
2017-10-09 (8 years ago)
Launch vehicle
FALCON 9
Launch site
Air Force Western Test Range (AFWTR)
Object type
Payload
Rocket body
Debris
Shape & HBR
Trap Box + 2 Pan, 4.8 m
Radar Cross Section
10.154 m², Large (>1 m²)

Expand to show TLE details & history
Last TLE update: 6 hours ago

TLE from 6 hours ago
0 IRIDIUM 100
1 42956U 17061B   26038.18600341  .00000458  00000-0  15662-3 0  9993
2 42956  86.3920  79.5525 0002180  92.7468 267.3978 14.34218801436148
Epoch: 2026-02-07T04:27Z
TLE epoch observation values (Epoch: 2026-02-07T04:27:50.694Z)
Latitude
0.00004°
Longitude
-124.72187°
Altitude
780.786 km
Speed
7.463 km/s
True Right ascension
05h 18m 12s
True Declination
0° 00' 00"
Sunlit
Object was in full shadow at epoch
Visualization orbit readout
Latitude
Unknown
Longitude
Unknown
Altitude
Unknown
Speed
Unknown
Apparent Right ascension
Unknown
Apparent Declination
Unknown
Sunlit
N/A
Visualization observer readout
Local Sidereal Time
12:36:24
Azimuth
Unknown
Elevation
Unknown
Doppler factor
Unknown
Orbital elements
Apogee altitude
776.188 km
Perigee altitude
773.069 km
Semi-major axis
7,152.765 km
Eccentricity
0.00022
Inclination
86.392°
RAAN
79.5525°
Arg. of periapsis
92.7468°
True anomaly
267.37285°
Mean anomaly
267.3978°
Eccentric anomaly
267.38532°
Mean motion
3.58783 °/min
Orbital period
100.34 mins
BSTAR
0.00015662
Loading maneuver chart data...
Computing Atmospheric mass density...
Loading historical data...
Loading historical data...
Loading historical data...
Loading historical data...
Loading historical data...
Loading historical data...
Loading historical data...

Documentation

Showing up to 5 results
|